Location: Mascot Post Office (historical)
(40.2645°N, 99.5462°W)
Time: 02:07:19
(UTC+00:00)

RESURS DK-1 - Pass Details

Date: 14 July 2020
Orbit: 555 x 562 km, 69.9° (Epoch: 14 August)

Event Time Altitude Azimuth Distance (km) Brightness Sun altitude
Rises 06:21:39 0° 327° (NNW) 2,751 6.8 -27.9°
Reaches altitude 10° 06:23:57 10° 319° (NW) 1,853 5.6 -28.0°
Enters shadow 06:26:03 25° 300° (WNW) 1,149 4.2 -28.0°
